Regional Weather Roundup
Issued by NWS

Home | Current Version | Previous Version | Graphics & Text | Print | Product List | Glossary On
Versions: 1 2 3 4 5 6 7 8 9 10 11 12 13 14 15 16 17 18 19 20 21 22 23 24 25 26 27 28 29 30 31 32 33 34 35 36 37 38 39 40 41 42 43 44 45 46 47 48 49 50
000
ASUS45 KABQ 050901
RWRNM
WEATHER ROUNDUP FOR NEW MEXICO
NATIONAL WEATHER SERVICE ALBUQUERQUE NM
200 AM MST THU MAR 05 2015

NOTE: "FAIR" MEANS FEW OR NO CLOUDS BELOW 12,000 FEET AGL WITH NO
       SIGNIFICANT WEATHER OR OBSTRUCTIONS TO VISION.

      THIS PRODUCT IS RELEASED AS TWO VERSIONS.  ONE VERSION NEAR
      THE TOP OF THE HOUR CONTAINING PRELIMINARY DATA FROM ALBUQUERQUE
      AND OTHER STATIONS.  A FINAL VERSION WITH ADDITIONAL DATA IS
      ISSUED ABOUT 10 MINUTES AFTER THE HOUR.

NMZ501-503-504-510>518-051000-
NORTHWEST PLATEAU/NORTHCENTRAL MOUNTAINS

CITY           SKY/WX    TMP DP  RH WIND       PRES   REMARKS
FARMINGTON     CLEAR     23  14  68 NW5       30.29R WCI  17
SANTA FE       CLEAR     19  14  81 SE7       30.29R WCI  10
TAOS           PTCLDY    12   3  67 N3        30.27R
ANGEL FIRE     FAIR     -16 -21  78 CALM      30.24R

$$
NMZ402-403-502-505>509-051000-
WESTCENTRAL MOUNTAINS/SOUTHWEST MOUNTAINS

CITY           SKY/WX    TMP DP  RH WIND       PRES   REMARKS
GALLUP         CLEAR     21  16  81 CALM      30.30R
SILVER CITY    CLEAR     32  14  47 N9        30.22S WCI  24

$$
NMZ407-409-411-412-051000-
SOUTHERN DESERTS

CITY           SKY/WX    TMP DP  RH WIND       PRES   REMARKS
DEMING         CLEAR     39  24  55 NE23G31   30.23R WCI  28
ALAMOGORDO     PTCLDY    32  27  80 S13       30.30R WCI  22
T OR C         CLEAR     29  22  75 N13       30.28R WCI  19

$$
NMZ519>523-051000-
CENTRAL VALLEYS/CENTRAL HIGHLANDS

CITY           SKY/WX    TMP DP  RH WIND       PRES   REMARKS
ALBUQUERQUE    CLEAR     27  19  72 N6        30.31R WCI  20
DOUBLE EAGLE   CLEAR     22  17  79 N9        30.31R WCI  12
MORIARTY ARPT  CLOUDY    20  15  79 S7        30.33R WCI  11
CLINES CORNERS CLOUDY    17  14  88 CALM      30.24S
BELEN          FAIR      25  17  73 CALM      30.32R
SOCORRO        NOT AVBL

$$
NMZ524>526-539-540-051000-
SOUTHCENTRAL MOUNTAINS

CITY           SKY/WX    TMP DP  RH WIND       PRES   REMARKS
RUIDOSO        NOT AVBL

$$
NMZ527>531-051000-
NORTHEAST HIGHLANDS/NORTHEAST PLAINS

CITY           SKY/WX    TMP DP  RH WIND       PRES   REMARKS
LAS VEGAS      CLOUDY    13  11  92 SW9       30.26F WCI   1
RATON          CLOUDY     0  -4  83 N7        30.28R WCI -13
CLAYTON        CLEAR      6   2  83 W8        30.32S WCI  -7

$$
NMZ532>537-051000-
EASTCENTRAL PLAINS

CITY           SKY/WX    TMP DP  RH WIND       PRES   REMARKS
TUCUMCARI      CLEAR     15  11  83 NW3       30.41R
CANNON AFB     NOT AVBL
CLOVIS AIRPORT CLOUDY    21  16  79 N7        30.41R WCI  13

$$
NMZ028-029-538-051000-
SOUTHEAST PLAINS

CITY           SKY/WX    TMP DP  RH WIND       PRES   REMARKS
ROSWELL        CLOUDY    26  20  77 NE5       30.45R WCI  20
ARTESIA        MIX PCPN  25  23  93 NE8       30.47R WCI  16
CARLSBAD       CLOUDY    28  20  71 N9        30.46R WCI  19
HOBBS          CLOUDY    23  23 100 N14       30.43S WCI  11


$$


USA.gov is the U.S. government's official web portal to all federal, state and local government web resources and services.